BTK8763 WAMM-WAAA

Flight info

Callsign BTK8763
Flight time 1h 24m
Altitude 38000
Route LUANG W32 VENRU
Aircraft A320/M-SDE3FGHIRWY/LB1

Departure

Time 2026-04-20 05:40
Airport Sam Ratulangi International Airport (WAMM)

Arrival

Time 2026-04-20 07:04
Airport Sultan Hasanuddin International Airport (WAAA)
Time Latitude Longitude Altitude Speed Heading
2026-04-20 05:09 1.54398 124.92340 336 ft 0 kts 272°
2026-04-20 05:31 1.54398 124.92345 337 ft 3 kts 272°
2026-04-20 05:31 1.54397 124.92366 337 ft 3 kts 272°
2026-04-20 05:31 1.54396 124.92386 337 ft 3 kts 272°
2026-04-20 05:32 1.54396 124.92407 333 ft 2 kts 275°
2026-04-20 05:32 1.54395 124.92416 336 ft 1 kts 310°
2026-04-20 05:32 1.54389 124.92422 335 ft 1 kts 352°
2026-04-20 05:32 1.54380 124.92423 213 ft 1 kts
2026-04-20 05:33 1.54372 124.92423 327 ft 1 kts
2026-04-20 05:33 1.54364 124.92422 283 ft 1 kts
2026-04-20 05:33 1.54360 124.92421 355 ft 0 kts
2026-04-20 05:34 1.54368 124.92423 324 ft 2 kts 12°
2026-04-20 05:34 1.54444 124.92449 336 ft 8 kts
2026-04-20 05:35 1.54507 124.92453 336 ft 10 kts
2026-04-20 05:35 1.54585 124.92455 335 ft 12 kts
2026-04-20 05:35 1.54676 124.92458 335 ft 14 kts
2026-04-20 05:35 1.54783 124.92461 332 ft 16 kts
2026-04-20 05:36 1.54904 124.92465 336 ft 17 kts
2026-04-20 05:36 1.55017 124.92469 336 ft 17 kts
2026-04-20 05:36 1.55113 124.92472 336 ft 13 kts
2026-04-20 05:36 1.55208 124.92475 336 ft 15 kts
2026-04-20 05:37 1.55317 124.92479 335 ft 17 kts
2026-04-20 05:37 1.55441 124.92483 336 ft 19 kts
2026-04-20 05:37 1.55573 124.92488 336 ft 17 kts
2026-04-20 05:37 1.55700 124.92492 336 ft 19 kts
2026-04-20 05:38 1.55841 124.92497 336 ft 21 kts
2026-04-20 05:38 1.55972 124.92501 333 ft 18 kts
2026-04-20 05:38 1.56077 124.92504 336 ft 14 kts
2026-04-20 05:38 1.56120 124.92580 334 ft 13 kts 95°
2026-04-20 05:39 1.56111 124.92663 335 ft 7 kts 110°
2026-04-20 05:39 1.56080 124.92669 335 ft 5 kts 179°
2026-04-20 05:39 1.56024 124.92667 336 ft 25 kts 182°
2026-04-20 05:39 1.55600 124.92653 336 ft 94 kts 182°
2026-04-20 05:40 1.54765 124.92625 334 ft 144 kts 182°
2026-04-20 05:40 1.53646 124.92592 580 ft 167 kts 181°
2026-04-20 05:40 1.52495 124.92553 1287 ft 167 kts 181°
2026-04-20 05:40 1.51326 124.92524 1844 ft 175 kts 181°
2026-04-20 05:41 1.50036 124.92457 2064 ft 198 kts 190°
2026-04-20 05:41 1.48725 124.91835 2283 ft 225 kts 221°
2026-04-20 05:41 1.47720 124.90521 2629 ft 251 kts 233°
2026-04-20 05:41 1.46660 124.89066 3242 ft 264 kts 232°
2026-04-20 05:42 1.45544 124.87577 4057 ft 270 kts 232°
2026-04-20 05:42 1.44401 124.86066 4877 ft 275 kts 232°
2026-04-20 05:42 1.43241 124.84531 5683 ft 279 kts 232°
2026-04-20 05:42 1.42067 124.82973 6500 ft 283 kts 232°
2026-04-20 05:43 1.40877 124.81386 7269 ft 287 kts 232°
2026-04-20 05:43 1.39675 124.79779 8005 ft 291 kts 232°
2026-04-20 05:43 1.38446 124.78159 8726 ft 294 kts 231°
2026-04-20 05:43 1.37198 124.76525 9392 ft 298 kts 231°
2026-04-20 05:44 1.35934 124.74873 10076 ft 300 kts 231°
2026-04-20 05:44 1.34632 124.73174 10360 ft 319 kts 231°
2026-04-20 05:44 1.33238 124.71350 10503 ft 340 kts 232°
2026-04-20 05:44 1.31779 124.69436 10920 ft 350 kts 232°
2026-04-20 05:45 1.30297 124.67491 11547 ft 353 kts 232°
2026-04-20 05:45 1.28804 124.65532 12181 ft 356 kts 232°
2026-04-20 05:45 1.27302 124.63559 12762 ft 358 kts 232°
2026-04-20 05:45 1.25784 124.61567 13353 ft 361 kts 232°
2026-04-20 05:46 1.24256 124.59563 13935 ft 364 kts 233°
2026-04-20 05:46 1.22720 124.57546 14554 ft 365 kts 233°
2026-04-20 05:46 1.21176 124.55520 15129 ft 368 kts 232°
2026-04-20 05:46 1.19622 124.53479 15689 ft 370 kts 233°
2026-04-20 05:47 1.18055 124.51424 16222 ft 373 kts 232°
2026-04-20 05:47 1.16477 124.49357 16753 ft 376 kts 232°
2026-04-20 05:47 1.14889 124.47273 17273 ft 378 kts 232°
2026-04-20 05:47 1.13289 124.45172 17758 ft 381 kts 232°
2026-04-20 05:48 1.11644 124.43086 18224 ft 384 kts 227°
2026-04-20 05:48 1.09661 124.41290 18667 ft 387 kts 216°
2026-04-20 05:48 1.07334 124.39917 19103 ft 391 kts 205°
2026-04-20 05:48 1.04793 124.38936 19536 ft 394 kts 201°
2026-04-20 05:49 1.02214 124.37987 19987 ft 396 kts 201°
2026-04-20 05:49 0.99620 124.37030 20414 ft 399 kts 201°
2026-04-20 05:49 0.97013 124.36070 20857 ft 401 kts 201°
2026-04-20 05:49 0.94385 124.35101 21301 ft 404 kts 201°
2026-04-20 05:50 0.91739 124.34124 21662 ft 407 kts 201°
2026-04-20 05:50 0.89069 124.33137 22001 ft 410 kts 201°
2026-04-20 05:50 0.86381 124.32143 22308 ft 413 kts 201°
2026-04-20 05:50 0.83680 124.31140 22642 ft 416 kts 201°
2026-04-20 05:51 0.80963 124.30133 22925 ft 417 kts 201°
2026-04-20 05:51 0.78276 124.29138 22974 ft 417 kts 201°
2026-04-20 05:51 0.75557 124.28132 22974 ft 416 kts 201°
2026-04-20 05:51 0.72844 124.27129 22974 ft 415 kts 201°
2026-04-20 05:52 0.70135 124.26129 22975 ft 415 kts 200°
2026-04-20 05:52 0.67426 124.25131 22975 ft 415 kts 201°
2026-04-20 05:52 0.64705 124.24128 23253 ft 418 kts 200°
2026-04-20 05:52 0.61967 124.23117 23575 ft 421 kts 200°
2026-04-20 05:53 0.59211 124.22097 23933 ft 423 kts 201°
2026-04-20 05:53 0.56445 124.21075 24290 ft 425 kts 201°
2026-04-20 05:53 0.53663 124.20047 24574 ft 428 kts 201°
2026-04-20 05:53 0.50862 124.19013 24809 ft 431 kts 201°
2026-04-20 05:54 0.48044 124.17971 25114 ft 433 kts 201°
2026-04-20 05:54 0.45221 124.16926 25501 ft 433 kts 201°
2026-04-20 05:54 0.42396 124.15882 25898 ft 433 kts 201°
2026-04-20 05:54 0.39569 124.14840 26259 ft 434 kts 200°
2026-04-20 05:55 0.36730 124.13796 26586 ft 435 kts 200°
2026-04-20 05:55 0.33918 124.12667 26887 ft 437 kts 206°
2026-04-20 05:55 0.31311 124.11097 27161 ft 440 kts 216°
2026-04-20 05:55 0.29001 124.09079 27440 ft 443 kts 225°
2026-04-20 05:56 0.26925 124.06783 27702 ft 446 kts 226°
2026-04-20 05:56 0.24847 124.04467 27958 ft 449 kts 226°
2026-04-20 05:56 0.22754 124.02138 28208 ft 452 kts 226°
2026-04-20 05:56 0.20647 123.99796 28459 ft 455 kts 226°
2026-04-20 05:57 0.18525 123.97441 28711 ft 458 kts 226°
2026-04-20 05:57 0.16388 123.95069 28942 ft 460 kts 226°
2026-04-20 05:57 0.14242 123.92685 29170 ft 463 kts 226°
2026-04-20 05:57 0.12080 123.90284 29398 ft 466 kts 226°
2026-04-20 05:58 0.09905 123.87868 29610 ft 469 kts 226°
2026-04-20 05:58 0.07714 123.85436 29856 ft 471 kts 225°
2026-04-20 05:58 0.05327 123.83191 30122 ft 472 kts 220°
2026-04-20 05:58 0.02865 123.81013 30421 ft 473 kts 220°
2026-04-20 05:59 0.00402 123.78836 30762 ft 473 kts 220°
2026-04-20 05:59 -0.02062 123.76661 31127 ft 472 kts 220°
2026-04-20 05:59 -0.04487 123.74517 31497 ft 471 kts 220°
2026-04-20 05:59 -0.06935 123.72348 31869 ft 470 kts 220°
2026-04-20 06:00 -0.09384 123.70178 32239 ft 470 kts 220°
2026-04-20 06:00 -0.11827 123.68015 32608 ft 469 kts 220°
2026-04-20 06:00 -0.14263 123.65857 32973 ft 468 kts 220°
2026-04-20 06:00 -0.16698 123.63700 33348 ft 467 kts 220°
2026-04-20 06:01 -0.19130 123.61549 33700 ft 466 kts 220°
2026-04-20 06:01 -0.21549 123.59408 34138 ft 463 kts 220°
2026-04-20 06:01 -0.23953 123.57282 34512 ft 461 kts 220°
2026-04-20 06:01 -0.26361 123.55153 34746 ft 463 kts 220°
2026-04-20 06:02 -0.28774 123.53019 35000 ft 463 kts 220°
2026-04-20 06:02 -0.31187 123.50886 35274 ft 463 kts 220°
2026-04-20 06:02 -0.33601 123.48751 35551 ft 463 kts 220°
2026-04-20 06:02 -0.36014 123.46618 35829 ft 463 kts 220°
2026-04-20 06:03 -0.38424 123.44490 36108 ft 462 kts 220°
2026-04-20 06:03 -0.40827 123.42361 36366 ft 462 kts 220°
2026-04-20 06:03 -0.43227 123.40232 36601 ft 462 kts 220°
2026-04-20 06:03 -0.45628 123.38101 36816 ft 462 kts 219°
2026-04-20 06:04 -0.48035 123.35968 36952 ft 463 kts 219°
2026-04-20 06:04 -0.50447 123.33836 36977 ft 463 kts 219°
2026-04-20 06:04 -0.55263 123.29580 36975 ft 462 kts 219°
2026-04-20 06:05 -0.60076 123.25312 36975 ft 463 kts 219°
2026-04-20 06:05 -0.64892 123.21045 36974 ft 463 kts 219°
2026-04-20 06:06 -0.69718 123.16775 36974 ft 464 kts 219°
2026-04-20 06:06 -0.74563 123.12492 36975 ft 465 kts 219°
2026-04-20 06:07 -0.79402 123.08202 36975 ft 464 kts 219°
2026-04-20 06:07 -0.84226 123.03934 36975 ft 463 kts 219°
2026-04-20 06:08 -0.89016 122.99699 36975 ft 463 kts 219°
2026-04-20 06:08 -0.93867 122.95476 36975 ft 462 kts 219°
2026-04-20 06:09 -0.98748 122.91287 36975 ft 462 kts 218°
2026-04-20 06:09 -1.03622 122.87094 36975 ft 462 kts 219°
2026-04-20 06:10 -1.08497 122.82895 36975 ft 463 kts 219°
2026-04-20 06:10 -1.13367 122.78688 36975 ft 463 kts 219°
2026-04-20 06:11 -1.18234 122.74486 36975 ft 463 kts 219°
2026-04-20 06:11 -1.23107 122.70282 36975 ft 462 kts 219°
2026-04-20 06:12 -1.27976 122.66080 36975 ft 462 kts 219°
2026-04-20 06:12 -1.32840 122.61875 36975 ft 463 kts 219°
2026-04-20 06:13 -1.37696 122.57680 36975 ft 459 kts 219°
2026-04-20 06:13 -1.42510 122.53522 36975 ft 457 kts 219°
2026-04-20 06:14 -1.46506 122.50070 36975 ft 457 kts 219°
2026-04-20 06:14 -1.51317 122.45917 36975 ft 457 kts 219°
2026-04-20 06:15 -1.56907 122.41091 36975 ft 457 kts 219°
2026-04-20 06:15 -1.60936 122.37608 36975 ft 457 kts 219°
2026-04-20 06:16 -1.65744 122.33457 36975 ft 457 kts 219°
2026-04-20 06:16 -1.70555 122.29309 36975 ft 457 kts 219°
2026-04-20 06:17 -1.75363 122.25152 36975 ft 457 kts 219°
2026-04-20 06:17 -1.80175 122.20997 36975 ft 457 kts 219°
2026-04-20 06:18 -1.84986 122.16846 36861 ft 456 kts 219°
2026-04-20 06:18 -1.89796 122.12694 36865 ft 457 kts 219°
2026-04-20 06:19 -1.94569 122.08563 36865 ft 457 kts 219°
2026-04-20 06:19 -1.99375 122.04402 36866 ft 457 kts 219°
2026-04-20 06:20 -2.04180 122.00240 36865 ft 457 kts 219°
2026-04-20 06:20 -2.08992 121.96085 36865 ft 457 kts 219°
2026-04-20 06:21 -2.13809 121.91931 36865 ft 457 kts 219°
2026-04-20 06:21 -2.18621 121.87774 36866 ft 457 kts 219°
2026-04-20 06:22 -2.23429 121.83619 36865 ft 457 kts 219°
2026-04-20 06:22 -2.28244 121.79460 36866 ft 457 kts 219°
2026-04-20 06:23 -2.33061 121.75288 36865 ft 460 kts 219°
2026-04-20 06:23 -2.37923 121.71074 36865 ft 464 kts 220°
2026-04-20 06:24 -2.42818 121.66852 36865 ft 466 kts 219°
2026-04-20 06:24 -2.47822 121.62725 36864 ft 467 kts 218°
2026-04-20 06:25 -2.52884 121.58637 36865 ft 468 kts 218°
2026-04-20 06:25 -2.57924 121.54537 36865 ft 466 kts 218°
2026-04-20 06:26 -2.62925 121.50431 36865 ft 465 kts 218°
2026-04-20 06:26 -2.67928 121.46318 36865 ft 465 kts 218°
2026-04-20 06:27 -2.72930 121.42210 36866 ft 466 kts 218°
2026-04-20 06:27 -2.77943 121.38099 36866 ft 466 kts 218°
2026-04-20 06:28 -2.82954 121.33991 36866 ft 466 kts 218°
2026-04-20 06:28 -2.87970 121.29878 36865 ft 466 kts 218°
2026-04-20 06:29 -2.92987 121.25763 36865 ft 466 kts 218°
2026-04-20 06:29 -2.98000 121.21657 36865 ft 465 kts 218°
2026-04-20 06:30 -3.03012 121.17545 36866 ft 467 kts 218°
2026-04-20 06:30 -3.08112 121.13530 36865 ft 465 kts 210°
2026-04-20 06:31 -3.14010 121.11055 36865 ft 459 kts 191°
2026-04-20 06:31 -3.20295 121.09853 36866 ft 460 kts 189°
2026-04-20 06:32 -3.26606 121.08644 36865 ft 463 kts 189°
2026-04-20 06:32 -3.32943 121.07423 36865 ft 464 kts 189°
2026-04-20 06:33 -3.39283 121.06209 36865 ft 464 kts 189°
2026-04-20 06:33 -3.45634 121.04990 36865 ft 467 kts 189°
2026-04-20 06:34 -3.52033 121.03771 36867 ft 468 kts 189°
2026-04-20 06:35 -3.61614 121.01947 36865 ft 466 kts 189°
2026-04-20 06:35 -3.67908 121.00747 36865 ft 462 kts 189°
2026-04-20 06:36 -3.74209 120.99543 36865 ft 461 kts 189°
2026-04-20 06:36 -3.80506 120.98333 36866 ft 461 kts 189°
2026-04-20 06:37 -3.86808 120.97124 36656 ft 463 kts 189°
2026-04-20 06:37 -3.89973 120.96517 36415 ft 463 kts 189°
2026-04-20 06:37 -3.93139 120.95910 36159 ft 463 kts 189°
2026-04-20 06:37 -3.96299 120.95306 35911 ft 463 kts 189°
2026-04-20 06:38 -3.99463 120.94703 35661 ft 464 kts 189°
2026-04-20 06:38 -4.02638 120.94098 35410 ft 466 kts 189°
2026-04-20 06:38 -4.05832 120.93488 35161 ft 468 kts 189°
2026-04-20 06:38 -4.09037 120.92875 34912 ft 469 kts 189°
2026-04-20 06:39 -4.12242 120.92261 34666 ft 470 kts 189°
2026-04-20 06:39 -4.15458 120.91644 34414 ft 471 kts 189°
2026-04-20 06:39 -4.18678 120.91025 34165 ft 472 kts 190°
2026-04-20 06:39 -4.21900 120.90406 33916 ft 472 kts 190°
2026-04-20 06:40 -4.25135 120.89786 33663 ft 473 kts 190°
2026-04-20 06:40 -4.28367 120.89167 33419 ft 473 kts 190°
2026-04-20 06:40 -4.31563 120.88554 33180 ft 474 kts 190°
2026-04-20 06:40 -4.34802 120.87936 32922 ft 474 kts 190°
2026-04-20 06:41 -4.38048 120.87316 32671 ft 475 kts 190°
2026-04-20 06:41 -4.41292 120.86695 32200 ft 475 kts 190°
2026-04-20 06:41 -4.44575 120.86066 31050 ft 485 kts 190°
2026-04-20 06:41 -4.47893 120.85428 30282 ft 484 kts 190°
2026-04-20 06:42 -4.51182 120.84795 29686 ft 479 kts 190°
2026-04-20 06:42 -4.54442 120.84168 29023 ft 476 kts 189°
2026-04-20 06:42 -4.57675 120.83520 28377 ft 472 kts 193°
2026-04-20 06:42 -4.60728 120.82369 27725 ft 468 kts 207°
2026-04-20 06:43 -4.63423 120.80559 27071 ft 466 kts 220°
2026-04-20 06:43 -4.65624 120.78200 26414 ft 463 kts 233°
2026-04-20 06:43 -4.67237 120.75432 25779 ft 459 kts 245°
2026-04-20 06:43 -4.68371 120.72456 25139 ft 455 kts 249°
2026-04-20 06:44 -4.69468 120.69497 24514 ft 450 kts 249°
2026-04-20 06:44 -4.70553 120.66579 23903 ft 444 kts 249°
2026-04-20 06:44 -4.71623 120.63696 23319 ft 438 kts 249°
2026-04-20 06:44 -4.72679 120.60857 22747 ft 432 kts 249°
2026-04-20 06:45 -4.73724 120.58058 22203 ft 425 kts 249°
2026-04-20 06:45 -4.74740 120.55335 21674 ft 420 kts 249°
2026-04-20 06:45 -4.75755 120.52614 21156 ft 414 kts 249°
2026-04-20 06:45 -4.76760 120.49920 20642 ft 410 kts 248°
2026-04-20 06:46 -4.77753 120.47253 20100 ft 407 kts 249°
2026-04-20 06:46 -4.78738 120.44610 19575 ft 403 kts 248°
2026-04-20 06:46 -4.79715 120.41990 19020 ft 400 kts 249°
2026-04-20 06:46 -4.80681 120.39390 18469 ft 397 kts 249°
2026-04-20 06:47 -4.81641 120.36809 17902 ft 394 kts 249°
2026-04-20 06:47 -4.82595 120.34248 17331 ft 391 kts 249°
2026-04-20 06:47 -4.83543 120.31696 16756 ft 388 kts 249°
2026-04-20 06:47 -4.84480 120.29168 16179 ft 386 kts 249°
2026-04-20 06:48 -4.85412 120.26656 15603 ft 383 kts 249°
2026-04-20 06:48 -4.86339 120.24170 15025 ft 380 kts 249°
2026-04-20 06:48 -4.87262 120.21699 14586 ft 374 kts 249°
2026-04-20 06:48 -4.88159 120.19291 14350 ft 366 kts 249°
2026-04-20 06:49 -4.89048 120.16901 14061 ft 364 kts 249°
2026-04-20 06:49 -4.89928 120.14529 13779 ft 362 kts 249°
2026-04-20 06:49 -4.90806 120.12170 13499 ft 361 kts 249°
2026-04-20 06:49 -4.91682 120.09820 13231 ft 359 kts 249°
2026-04-20 06:50 -4.92554 120.07480 12935 ft 357 kts 249°
2026-04-20 06:50 -4.93421 120.05150 12657 ft 356 kts 249°
2026-04-20 06:50 -4.94278 120.02828 12375 ft 354 kts 251°
2026-04-20 06:50 -4.94746 120.00412 12103 ft 354 kts 268°
2026-04-20 06:51 -4.94441 119.97980 11830 ft 353 kts 286°
2026-04-20 06:51 -4.93401 119.95764 11468 ft 352 kts 304°
2026-04-20 06:51 -4.91725 119.93992 11126 ft 351 kts 322°
2026-04-20 06:51 -4.89791 119.92508 10754 ft 349 kts 322°
2026-04-20 06:52 -4.87874 119.91034 10499 ft 346 kts 322°
2026-04-20 06:52 -4.86025 119.89608 10357 ft 334 kts 322°
2026-04-20 06:52 -4.84216 119.88207 10229 ft 323 kts 322°
2026-04-20 06:52 -4.82468 119.86851 10102 ft 313 kts 322°
2026-04-20 06:53 -4.80768 119.85536 9903 ft 305 kts 322°
2026-04-20 06:53 -4.79106 119.84249 9776 ft 301 kts 322°
2026-04-20 06:53 -4.77441 119.82964 9583 ft 302 kts 322°
2026-04-20 06:53 -4.75778 119.81680 9362 ft 302 kts 322°
2026-04-20 06:54 -4.74121 119.80399 9147 ft 300 kts 322°
2026-04-20 06:54 -4.72472 119.79124 8928 ft 298 kts 322°
2026-04-20 06:54 -4.70839 119.77862 8712 ft 296 kts 322°
2026-04-20 06:54 -4.69209 119.76605 8496 ft 295 kts 322°
2026-04-20 06:55 -4.67625 119.75298 8279 ft 294 kts 312°
2026-04-20 06:55 -4.66637 119.73542 8067 ft 290 kts 284°
2026-04-20 06:55 -4.66557 119.71541 7764 ft 289 kts 257°
2026-04-20 06:55 -4.67372 119.69719 7398 ft 288 kts 234°
2026-04-20 06:56 -4.68567 119.68107 7046 ft 288 kts 233°
2026-04-20 06:56 -4.69770 119.66504 6695 ft 287 kts 232°
2026-04-20 06:56 -4.71042 119.64970 6342 ft 286 kts 222°
2026-04-20 06:56 -4.72705 119.63901 5998 ft 285 kts 202°
2026-04-20 06:57 -4.74632 119.63473 5653 ft 284 kts 181°
2026-04-20 06:57 -4.76587 119.63646 5333 ft 282 kts 172°
2026-04-20 06:57 -4.78526 119.63915 4940 ft 282 kts 172°
2026-04-20 06:57 -4.80524 119.64191 4212 ft 296 kts 172°
2026-04-20 06:58 -4.82545 119.64469 3924 ft 288 kts 172°
2026-04-20 06:58 -4.84457 119.64731 3781 ft 267 kts 173°
2026-04-20 06:58 -4.86228 119.64974 3666 ft 247 kts 172°
2026-04-20 06:58 -4.87869 119.65199 3566 ft 231 kts 173°
2026-04-20 06:59 -4.89426 119.65348 3457 ft 219 kts 185°
2026-04-20 06:59 -4.90860 119.64984 3308 ft 211 kts 206°
2026-04-20 06:59 -4.92118 119.64274 3089 ft 204 kts 210°
2026-04-20 06:59 -4.93328 119.63571 2953 ft 199 kts 210°
2026-04-20 07:00 -4.94522 119.62880 2785 ft 193 kts 210°
2026-04-20 07:00 -4.95636 119.62238 2571 ft 175 kts 210°
2026-04-20 07:00 -4.96618 119.61672 2342 ft 154 kts 210°
2026-04-20 07:00 -4.97517 119.61155 2137 ft 146 kts 213°
2026-04-20 07:01 -4.98386 119.60654 1950 ft 146 kts 212°
2026-04-20 07:01 -4.99262 119.60149 1765 ft 145 kts 213°
2026-04-20 07:01 -5.00133 119.59647 1567 ft 145 kts 213°
2026-04-20 07:01 -5.00428 119.59477 1504 ft 144 kts 213°
2026-04-20 07:02 -5.01009 119.59206 1358 ft 146 kts 210°
2026-04-20 07:02 -5.01873 119.58690 1200 ft 149 kts 217°
2026-04-20 07:02 -5.02772 119.58103 1072 ft 155 kts 212°
2026-04-20 07:03 -5.03681 119.57600 866 ft 145 kts 213°
2026-04-20 07:03 -5.04257 119.57262 657 ft 142 kts 213°
2026-04-20 07:03 -5.05112 119.56770 467 ft 141 kts 212°
2026-04-20 07:03 -5.05967 119.56283 260 ft 142 kts 212°
2026-04-20 07:04 -5.07113 119.55624 48 ft 141 kts 211°
2026-04-20 07:04 -5.07636 119.55321 43 ft 120 kts 211°
2026-04-20 07:04 -5.08135 119.55034 40 ft 48 kts 210°
2026-04-20 07:04 -5.08371 119.54899 40 ft 29 kts 209°
2026-04-20 07:05 -5.08511 119.54793 41 ft 24 kts 231°
2026-04-20 07:05 -5.08569 119.54701 41 ft 9 kts 239°
2026-04-20 07:05 -5.08606 119.54639 40 ft 11 kts 242°
2026-04-20 07:05 -5.08566 119.54590 41 ft 13 kts
2026-04-20 07:06 -5.08478 119.54633 41 ft 16 kts 30°
2026-04-20 07:06 -5.08383 119.54689 41 ft 15 kts 30°
2026-04-20 07:06 -5.08281 119.54746 41 ft 18 kts 29°
2026-04-20 07:06 -5.08177 119.54807 41 ft 14 kts 30°
2026-04-20 07:07 -5.08101 119.54844 41 ft 11 kts
2026-04-20 07:07 -5.08038 119.54796 41 ft 12 kts 300°
2026-04-20 07:07 -5.08002 119.54734 41 ft 11 kts 307°
2026-04-20 07:07 -5.07926 119.54750 41 ft 13 kts 30°
2026-04-20 07:08 -5.07847 119.54797 41 ft 13 kts 30°
2026-04-20 07:08 -5.07767 119.54844 41 ft 14 kts 31°
2026-04-20 07:08 -5.07698 119.54884 41 ft 8 kts 30°
2026-04-20 07:08 -5.07651 119.54892 41 ft 6 kts 322°
2026-04-20 07:09 -5.07630 119.54858 41 ft 1 kts 300°
2026-04-20 07:09 -5.07621 119.54843 40 ft 3 kts 300°
2026-04-20 07:09 -5.07613 119.54829 41 ft 2 kts 300°
2026-04-20 07:09 -5.07610 119.54823 41 ft 1 kts 300°
2026-04-20 07:10 -5.07609 119.54823 41 ft 0 kts 300°